Simultaneous Nadir Overpasses (SNOs) Predictions

Prediction of SNOs between TERRA and METOP-C Satellite Orbit:

Table of predicted SNOs for the next 14.0 days since TLE Epoch: 10/26/2024
Index Date (TERRA) Time (TERRA) Lat,Lon (TERRA) SZA (TERRA ) Date (METOP-C) Time (METOP-C) Lat,Lon (METOP-C) SZA (METOP-C ) Distance(km) Time Diff (sec)
1 10/28/2024 01:21:57 68.46, 145.01 81.91 10/28/2024 01:21:50 68.46, 145.03 81.92 0.96 7
2 10/28/2024 02:10:41 -70.57, -44.54 96.12 10/28/2024 02:11:53 -70.56, -44.61 96.14 2.55 72
3 10/30/2024 15:03:13 -65.88, 117.10 99.58 10/30/2024 15:02:17 -65.88, 117.11 99.56 0.76 56
4 10/30/2024 15:51:37 68.96, -71.88 83.23 10/30/2024 15:51:59 68.96, -71.88 83.22 0.14 22
5 11/02/2024 05:32:51 -66.43, -99.86 98.26 11/02/2024 05:32:25 -66.43, -99.88 98.25 1.05 26
6 11/02/2024 06:21:17 69.39, 71.18 84.46 11/02/2024 06:22:09 69.38, 71.14 84.44 2.14 52
7 11/04/2024 19:14:30 62.09,-128.72 78.67 11/04/2024 19:13:17 62.08,-128.82 78.72 5.56 73
8 11/04/2024 20:02:14 -67.70, 44.00 96.30 11/04/2024 20:02:18 -67.71, 44.03 96.30 1.56 4
9 11/04/2024 20:44:43 81.10, -50.37 104.74 11/04/2024 20:45:55 80.36, -52.40 104.35 90.76 72
10 11/07/2024 09:43:29 64.76, 15.95 81.82 11/07/2024 09:42:46 64.76, 15.96 81.84 0.13 43



Historial Predications of SNOs between TERRA and METOP-C
